Back to catalog

STARLINK-30982

AliveCommunicationsVLEO
NORAD 58512·PAYLOAD·🇺🇸 United States

Launched Dec 7, 2023 from Cape Canaveral Space Force Station

Loading…

Next Passes (next 24 hours)

TLE

FreshSource: CelesTrak SupGP

Epoch: Sep 14, 2026, 22:03 UTC

1 58512C 23191E   26257.91923611 -.00092775  00000+0 -33612-2 0  2576
2 58512  42.9993 115.1326 0001367 273.4816 216.5641 15.27615993    10

Track STARLINK-30982 in real time with AllMySat

Download on the App Store